This is the latest recevied weather packets stored in our database for station/object KC1BRV. If no packets are shown the sender has not sent any weather packets the latest 10 day(s).
| Time | Temp. | Humidity | Pressure | Rain* | Wind** | Luminosity | Snow |
|---|---|---|---|---|---|---|---|
| 1788016809 | 22.22° C | 55% | 1024.2 hPa | 0 mm | - | 645 W/m² | - |
| 1788016511 | 22.78° C | 54% | 1024.2 hPa | 0 mm | - | 637 W/m² | - |
| 1788016203 | 22.78° C | 54% | 1024 hPa | 0 mm | - | 628 W/m² | - |
| 1788015909 | 22.22° C | 56% | 1024.3 hPa | 0 mm | - | 624 W/m² | - |
| 1788015602 | 22.22° C | 54% | 1024.4 hPa | 0 mm | - | 616 W/m² | - |
| 1788015297 | 21.67° C | 57% | 1024.4 hPa | 0 mm | - | 601 W/m² | - |
| 1788014996 | 21.67° C | 56% | 1024.2 hPa | 0 mm | - | 592 W/m² | - |
| 1788014695 | 21.67° C | 56% | 1024.5 hPa | 0 mm | - | 580 W/m² | - |
| 1788014390 | 21.11° C | 58% | 1024.2 hPa | 0 mm | - | 571 W/m² | - |
| 1788014086 | 21.11° C | 62% | 1024.1 hPa | 0 mm | - | 563 W/m² | - |
| 1788013784 | 20.56° C | 61% | 1024.2 hPa | 0 mm | - | 553 W/m² | - |
| 1788013479 | 20° C | 62% | 1024.3 hPa | 0 mm | - | 242 W/m² | - |
| 1788013179 | 20° C | 61% | 1024.1 hPa | 0 mm | - | 47 W/m² | - |
| 1788012878 | 20° C | 60% | 1024 hPa | 0 mm | - | 43 W/m² | - |
| 1788012573 | 20° C | 64% | 1024.1 hPa | 0 mm | - | 42 W/m² | - |
| 1788012268 | 20° C | 65% | 1024.1 hPa | 0 mm | - | 41 W/m² | - |
| 1788011967 | 19.44° C | 64% | 1024 hPa | 0 mm | - | 42 W/m² | - |
| 1788011666 | 19.44° C | 65% | 1024 hPa | 0 mm | - | 47 W/m² | - |
| 1788011362 | 19.44° C | 64% | 1023.7 hPa | 0 mm | - | 55 W/m² | - |
| 1788011061 | 19.44° C | 64% | 1023.9 hPa | 0 mm | - | 54 W/m² | - |
| 1788010757 | 19.44° C | 65% | 1023.8 hPa | 0 mm | - | 41 W/m² | - |
| 1788010455 | 18.89° C | 66% | 1023.9 hPa | 0 mm | - | 42 W/m² | - |
| 1788010150 | 18.89° C | 68% | 1023.9 hPa | 0 mm | - | 38 W/m² | - |
| 1788009844 | 18.89° C | 68% | 1023.7 hPa | 0 mm | - | 38 W/m² | - |
| 1788009543 | 18.89° C | 67% | 1023.6 hPa | 0 mm | - | 37 W/m² | - |
* Rain latest hour (hover to see other rain measurements)
** Current wind speed in m/s (hover to see current wind gust speed)